[[{"header":{"parameterUnit":"m.s-1","parameterCategory":1,"la1":30.2991,"la2":30.254,"lo1":-89.0895,"lo2":-89.0444,"dy":0.0017,"dx":0.0017,"nx":28,"ny":28,"refTime":"2024-06-23T03:00:00:Z","depth":0,"parameterNumber":2,"parameterNumberName":"U-component_of_WINDS"},"data":[0,0,0,0,0,0,0,0,0,0,0,0,0,0,0,0,0,0,0,0,0,0,0,0,0,0,0,0,0,0,0,0,0,0,0,0,0,0,0,0,0,0,0,0,0,0,0,0,0,0,0,0,0,0,0,0,0,0,0.1691,0.1692,0,0.178,0.1781,0.1782,0.1844,0.1845,0.1845,0.1846,0.1934,0.1936,0.1938,0,0,0,0,0,0,0,0,0,0,0,0,0,0.1573,0.1575,0.1691,0.1692,0.1693,0.1779,0.1781,0.1782,0.1844,0.1845,0.1845,0.1846,0.1933,0.1936,0.1938,0,0,0,0,0,0,0,0,0,0,0,0,0,0.1639,0.1575,0.1691,0.1735,0.174,0.1779,0.1781,0.1782,0.1844,0.1845,0.1845,0.1846,0.1933,0.1935,0.1938,0.1941,0,0,0.1947,0.1948,0,0,0,0,0,0,0,0,0.1635,0.1643,0.1727,0.1732,0.1737,0.1802,0.1772,0.1835,0.1844,0.1804,0.1846,0.1846,0.1889,0.1896,0.1911,0.1945,0.1949,0.1947,0.1949,0.195,0.1951,0,0,0,0,0,0,0,0.163,0.164,0.1726,0.1728,0.1734,0.1749,0.1759,0.1784,0.1841,0.1808,0.1812,0.1822,0.1892,0.1908,0.1913,0.195,0.1947,0.195,0.1951,0.1953,0.1989,0.1988,0,0,0,0,0,0,0.1619,0.1635,0.1723,0.1729,0.1687,0.175,0.1762,0.178,0.1841,0.1851,0.1821,0.1825,0.1903,0.191,0.1916,0.1922,0.195,0.1953,0.1954,0.199,0.1989,0.1988,0,0,0,0,0,0,0.1617,0.1627,0.172,0.1683,0.1696,0.1752,0.1772,0.1781,0.1797,0.1852,0.1862,0.1827,0.1903,0.1913,0.1934,0.1926,0.1954,0.1957,0.1991,0.199,0.1989,0.1934,0,0,0,0,0,0,0.1613,0.1625,0.1627,0.1683,0.1698,0.1736,0.1771,0.1783,0.1802,0.1807,0.186,0.1869,0.1905,0.1929,0.1937,0.1931,0.1959,0.1992,0.199,0.1989,0.1937,0.1931,0.1926,0,0,0,0,0,0.1608,0.1608,0.1627,0.1637,0.1702,0.1736,0.1744,0.1786,0.1801,0.1803,0.1838,0.1867,0.1926,0.1931,0.194,0.1934,0.1992,0.1991,0.1989,0.1939,0.1932,0.1927,0,0,0,0,0,0,0.155,0.1617,0.1638,0.1656,0.169,0.1746,0.175,0.1778,0.1807,0.1811,0.1861,0.1872,0.1888,0.1914,0.1918,0.1939,0.1963,0.1963,0.1922,0.1916,0.1911,0.1903,0.1961,0,0,0,0,0,0.1539,0.1562,0.1619,0.1629,0.1645,0.1694,0.1711,0.174,0.1776,0.1791,0.1827,0.1861,0.1887,0.1903,0.193,0.1941,0.1952,0.1942,0.1936,0.1932,0.1931,0.1937,0.1932,0.1983,0.1983,0.1983,0,0,0.1517,0.1556,0.1568,0.1618,0.1648,0.1669,0.1706,0.1727,0.1743,0.1794,0.1816,0.1844,0.1885,0.1901,0.1909,0.1923,0.192,0.193,0.1926,0.1927,0.1935,0.193,0.1926,0.1982,0.1982,0.1982,0,0,0.1487,0.152,0.1532,0.1561,0.1605,0.1638,0.164,0.1693,0.1713,0.1736,0.1775,0.1794,0.1838,0.1865,0.1884,0.1864,0.1891,0.1871,0.1844,0.1849,0.1845,0.1842,0.1832,0.1829,0.187,0.187,0.187,0,0.1454,0.1488,0.1534,0.1553,0.1573,0.1621,0.1632,0.1658,0.1708,0.172,0.1735,0.179,0.1821,0.1843,0.1838,0.1853,0.1856,0.1865,0.1842,0.1839,0.1837,0.1828,0.1825,0.1867,0.1868,0.1868,0.1868,0,0.1444,0.1467,0.1471,0.1519,0.154,0.1555,0.1602,0.1617,0.1644,0.1675,0.1697,0.1736,0.1771,0.1779,0.1806,0.1804,0.1811,0.1833,0.1857,0.1828,0.1821,0.1819,0.1863,0.1864,0.1865,0.1866,0,0,0.138,0.1452,0.1453,0.1475,0.1527,0.1545,0.1561,0.1596,0.1607,0.1641,0.1654,0.169,0.171,0.1732,0.1763,0.1767,0.1746,0.1789,0.1791,0.1778,0.1745,0.1727,0.1723,0.1765,0.1765,0.1765,0.1741,0,0.1357,0.139,0.1431,0.1449,0.147,0.1515,0.1529,0.1561,0.159,0.1612,0.1644,0.1668,0.1694,0.1707,0.1714,0.1747,0.174,0.175,0.1777,0.1777,0.1764,0.1719,0.1701,0.1677,0.1739,0.1738,0.1738,0,0.1334,0.1365,0.1385,0.1434,0.1445,0.1457,0.1491,0.1511,0.1549,0.1569,0.1593,0.1626,0.1644,0.1666,0.1691,0.1697,0.171,0.1728,0.1728,0.1731,0.1755,0.1719,0.167,0.1666,0.1735,0.1735,0.1735,0,0.1283,0.133,0.1347,0.1365,0.1423,0.143,0.1454,0.1493,0.1511,0.154,0.1552,0.1583,0.16,0.1623,0.1662,0.1675,0.1682,0.1708,0.1698,0.1697,0.1697,0.1696,0.1647,0.1708,0.1708,0.1708,0.1708,0,0.1252,0.1262,0.1325,0.1336,0.1348,0.1395,0.1405,0.1433,0.1467,0.1483,0.1524,0.1538,0.159,0.161,0.1641,0.1655,0.1663,0.1679,0.1687,0.1675,0.1672,0.1683,0.1685,0.1707,0.1707,0.1707,0.1708,0,0.1196,0.1239,0.1261,0.1314,0.1328,0.1334,0.1379,0.1391,0.1422,0.1442,0.1449,0.1498,0.1523,0.1565,0.1603,0.1623,0.1632,0.1646,0.1619,0.1623,0.161,0.161,0.1565,0.1561,0.1626,0.1625,0.1625,0,0.1173,0.1182,0.1236,0.125,0.1273,0.1295,0.1313,0.136,0.1377,0.1419,0.1425,0.1454,0.1479,0.1517,0.1555,0.1583,0.1597,0.158,0.1602,0.1589,0.1595,0.1593,0.1593,0.1574,0.1573,0.1572,0.1572,0,0.1126,0.1147,0.1172,0.1204,0.1225,0.1253,0.1282,0.1291,0.1343,0.136,0.1387,0.1406,0.1444,0.1471,0.1505,0.1529,0.1558,0.1565,0.1564,0.155,0.1533,0.154,0.1603,0.1565,0.1566,0.1566,0.1567,0.1567,0.1085,0.1094,0.1133,0.116,0.1187,0.1213,0.1226,0.1259,0.1282,0.1317,0.1343,0.1367,0.1403,0.1451,0.1474,0.1492,0.1506,0.1505,0.1504,0.1503,0.1497,0.1532,0.1499,0.1499,0.15,0.15,0.15,0,0.1038,0.1066,0.109,0.113,0.115,0.1178,0.1211,0.1226,0.1247,0.1278,0.1302,0.1332,0.1358,0.1398,0.1427,0.1434,0.1448,0.144,0.1439,0.1444,0.1484,0.1481,0.1428,0.1428,0.1428,0.1428,0.1428,0.1428,0.1017,0.1033,0.1058,0.1088,0.1116,0.114,0.1157,0.1181,0.1206,0.1237,0.126,0.1286,0.1321,0.1352,0.1377,0.1388,0.1396,0.1383,0.1398,0.1435,0.1441,0.1448,0.1445,0.1385,0.1385,0.1356,0.1356,0.1356]},{"header":{"parameterUnit":"m.s-1","parameterCategory":1,"la1":30.2991,"la2":30.254,"lo1":-89.0895,"lo2":-89.0444,"dy":0.0017,"dx":0.0017,"nx":28,"ny":28,"refTime":"2024-06-23T03:00:00:Z","depth":0,"parameterNumber":3,"parameterNumberName":"V-component_of_WINDS"},"data":[0,0,0,0,0,0,0,0,0,0,0,0,0,0,0,0,0,0,0,0,0,0,0,0,0,0,0,0,0,0,0,0,0,0,0,0,0,0,0,0,0,0,0,0,0,0,0,0,0,0,0,0,0,0,0,0,0,0,4.9503,4.9503,0,4.9489,4.9489,4.9489,4.9439,4.9437,4.9436,4.9435,4.9422,4.9423,4.9423,0,0,0,0,0,0,0,0,0,0,0,0,0,4.9487,4.9488,4.9503,4.9503,4.9503,4.9489,4.9489,4.9489,4.9439,4.9437,4.9436,4.9435,4.9422,4.9422,4.9423,0,0,0,0,0,0,0,0,0,0,0,0,0,4.9486,4.9488,4.9503,4.9476,4.9473,4.9489,4.9489,4.9489,4.9439,4.9437,4.9436,4.9434,4.9421,4.9422,4.9423,4.9465,0,0,4.9427,4.9427,0,0,0,0,0,0,0,0,4.9486,4.9486,4.948,4.9478,4.9475,4.9464,4.9479,4.9481,4.944,4.9452,4.9435,4.9433,4.9437,4.9437,4.9438,4.9464,4.9463,4.9427,4.9427,4.9428,4.9428,0,0,0,0,0,0,0,4.9486,4.9487,4.9498,4.948,4.9477,4.9465,4.9463,4.9479,4.9455,4.9451,4.9447,4.9446,4.9436,4.9437,4.9437,4.9463,4.9427,4.9428,4.9428,4.9429,4.9522,4.9524,0,0,0,0,0,0,4.949,4.9487,4.9498,4.9497,4.9476,4.9467,4.9464,4.9469,4.9454,4.945,4.9448,4.9444,4.9436,4.9436,4.9437,4.9484,4.9428,4.9429,4.943,4.9521,4.9523,4.9525,0,0,0,0,0,0,4.949,4.9491,4.9499,4.9491,4.9491,4.9469,4.9475,4.947,4.9471,4.9452,4.9447,4.9454,4.9435,4.9435,4.9458,4.9483,4.9429,4.943,4.9518,4.9521,4.9524,4.9578,0,0,0,0,0,0,4.9489,4.9492,4.9506,4.9492,4.9492,4.952,4.9476,4.9471,4.9473,4.9468,4.9456,4.9453,4.9434,4.9457,4.9459,4.9483,4.9431,4.9516,4.952,4.9523,4.9574,4.9583,4.959,0,0,0,0,0,4.9489,4.9522,4.9507,4.9509,4.951,4.9521,4.9521,4.9498,4.9476,4.9491,4.9478,4.9453,4.948,4.946,4.9462,4.9487,4.9514,4.9519,4.9523,4.9571,4.9581,4.959,0,0,0,0,0,0,4.954,4.952,4.9503,4.9533,4.9529,4.9513,4.9531,4.951,4.9513,4.9508,4.948,4.9477,4.9504,4.9498,4.9475,4.9526,4.9493,4.9498,4.9529,4.9538,4.9546,4.9547,4.9432,0,0,0,0,0,4.9555,4.9566,4.9548,4.9575,4.9575,4.9553,4.9557,4.954,4.9535,4.9534,4.9523,4.9519,4.9527,4.9532,4.9538,4.9574,4.957,4.9592,4.96,4.9606,4.961,4.9629,4.9638,4.9538,4.9538,4.9538,0,0,4.9586,4.9576,4.9584,4.9586,4.9581,4.9593,4.9552,4.9566,4.9575,4.9536,4.9556,4.9549,4.9543,4.9572,4.9585,4.9568,4.9638,4.9612,4.9617,4.9617,4.9634,4.9644,4.9652,4.9541,4.9541,4.954,0,0,4.9647,4.9641,4.9664,4.966,4.9653,4.9639,4.9645,4.9632,4.9625,4.9646,4.9616,4.9627,4.964,4.9638,4.9638,4.97,4.9677,4.9703,4.9744,4.9762,4.977,4.9777,4.9799,4.9807,4.9708,4.9708,4.9708,0,4.9686,4.9702,4.9678,4.9694,4.9696,4.9661,4.9684,4.9682,4.9678,4.968,4.9661,4.9678,4.9672,4.97,4.9715,4.9717,4.9722,4.9704,4.9771,4.9777,4.9783,4.9804,4.9812,4.9711,4.9711,4.971,4.971,0,4.9751,4.9763,4.9782,4.9779,4.9783,4.9802,4.9781,4.9788,4.9771,4.9759,4.9781,4.9773,4.9776,4.9782,4.9766,4.9808,4.9798,4.9776,4.9742,4.9796,4.9815,4.9823,4.9715,4.9714,4.9713,4.9713,0,0,4.9842,4.9827,4.9834,4.9832,4.9823,4.9832,4.9851,4.9855,4.9861,4.986,4.9875,4.9888,4.9867,4.9868,4.9851,4.9867,4.9917,4.9842,4.9842,4.9856,4.9964,4.998,4.999,4.9902,4.9904,4.9905,4.9964,0,4.9901,4.9931,4.991,4.9944,4.9955,4.9923,4.9939,4.9936,4.9926,4.9934,4.9923,4.9932,4.9904,4.9905,4.9919,4.9908,4.9938,4.9903,4.9916,4.9917,4.9917,5.0,5.0017,5.0073,4.9971,4.9973,4.9973,0,4.9972,4.9974,5.0009,4.9999,5.0003,5.0017,5.002,5.0028,5.0024,5.0015,5.0017,4.9996,5.0014,4.9982,5.0006,4.9983,4.9987,4.9982,4.9984,4.9984,4.9948,5.0001,5.0091,5.0099,4.9985,4.9984,4.9983,0,5.0036,5.0047,5.007,5.007,5.0058,5.0069,5.0065,5.0059,5.0062,5.0065,5.0067,5.0071,5.0074,5.0078,5.0059,5.0037,5.0086,5.0052,5.008,5.008,5.009,5.009,5.0181,5.0094,5.0094,5.0094,5.0094,0,5.0102,5.0125,5.0098,5.0112,5.0137,5.0113,5.0138,5.0131,5.0126,5.0138,5.0111,5.0123,5.0098,5.0107,5.0093,5.0115,5.0117,5.011,5.0106,5.0112,5.0113,5.0114,5.0109,5.0096,5.0096,5.0095,5.0095,0,5.0176,5.0159,5.0182,5.0169,5.0167,5.0185,5.0175,5.0187,5.0176,5.0191,5.0194,5.0176,5.0186,5.0168,5.0176,5.0166,5.0197,5.0187,5.0199,5.0195,5.0224,5.0221,5.0318,5.033,5.0236,5.0237,5.0238,0,5.022,5.0236,5.0226,5.0232,5.0229,5.0239,5.0243,5.0221,5.0227,5.0224,5.0237,5.0245,5.0249,5.0267,5.0255,5.0261,5.025,5.0284,5.0251,5.0257,5.025,5.0249,5.0251,5.0291,5.0292,5.0293,5.0293,0,5.0298,5.0289,5.0296,5.03,5.0306,5.0308,5.0308,5.0315,5.0292,5.0299,5.0309,5.0313,5.0321,5.0329,5.0333,5.0328,5.0307,5.0304,5.0311,5.0317,5.0323,5.0319,5.0216,5.0302,5.0301,5.03,5.03,5.03,5.0358,5.0371,5.0366,5.0375,5.0373,5.0374,5.0385,5.0376,5.0383,5.0388,5.0375,5.0388,5.0384,5.0387,5.0385,5.0395,5.038,5.039,5.0392,5.0395,5.0399,5.0322,5.0396,5.0395,5.0395,5.0395,5.0395,0,5.0434,5.043,5.0438,5.044,5.0447,5.0427,5.0426,5.0433,5.0445,5.0444,5.0449,5.0461,5.0469,5.0458,5.0465,5.0475,5.0465,5.0477,5.0476,5.0475,5.0412,5.0405,5.0485,5.0485,5.0485,5.0485,5.0485,5.0485,5.0475,5.0497,5.0488,5.0509,5.0504,5.0517,5.0518,5.0519,5.0518,5.0532,5.0539,5.0532,5.0527,5.0532,5.0539,5.0536,5.0539,5.0554,5.0548,5.0488,5.048,5.0471,5.0465,5.0555,5.0555,5.061,5.061,5.0611]}]]